Regional Weather Roundup
Issued by NWS Upton, NY

Current Version | Previous Version | Text Only | Print | Product List | Glossary Off
Versions: 1 2 3 4 5 6 7 8 9 10 11 12 13 14 15 16 17 18 19 20 21 22 23 24 25 26 27 28 29 30 31 32 33 34 35 36 37 38 39 40 41 42 43 44 45 46 47 48 49
000 ASUS41 KOKX 270505 RWROKX REGIONAL WEATHER ROUNDUP NATIONAL WEATHER SERVICE NEW YORK NY 1200 AM EST TUE JAN 27 2015 NOTE: "FAIR" INDICATES FEW OR NO CLOUDS BELOW 12,000 FEET WITH NO SIGNIFICANT WEATHER AND/OR OBSTRUCTIONS TO VISIBILITY. NYZ071-072-176-178-NJZ106-104-270600- NEW YORK CITY METRO AREA CITY SKY/WX TMP DP RH WIND PRES REMARKS CENTRAL PARK LGT SNOW 25 19 78 N12G23 29.71F VSB 3/4 WCI 14 LAGUARDIA APRT SNOW 25 21 86 N14 29.69F VSB 1/4 WCI 13 KENNEDY INTL LGT SNOW 26 21 81 N23G33 29.67F VSB 3/4 WCI 11 NEWARK/LIBERTY LGT SNOW 23 20 88 N18G26 29.70F VSB 1 WCI 9 BRNX BOT. GARD N/A N/A N/A N/A NE14 29.70F TETERBORO SNOW 23 18 81 N10G23 29.70F VSB 1/2 WCI 12 $$ NYZ177-179-078>081-270600- LONG ISLAND NEW YORK CITY SKY/WX TMP DP RH WIND PRES REMARKS FARMINGDALE FOG 25 22 88 NE22G37 29.64F VSB 1/2 WCI 10 ISLIP HVY SNOW 24 21 88 N20G33 29.60F VSB 1/4 WCI 10 SHIRLEY FOG 26 23 88 N22G37 29.62F VSB 1/2 WCI 12 WESTHAMPTON SNOW 26 23 88 N29G40 29.59F VSB 1/2 WCI 10 MONTAUK POINT N/A 30 28 92 N29G48 29.55F WCI 15 $$ NYZ052-065-067-270600- HUDSON VALLEY CITY SKY/WX TMP DP RH WIND PRES REMARKS WHITE PLAINS SNOW 23 19 85 N18G30 29.65F VSB 1/2 WCI 9 NEWBURGH LGT SNOW 19 16 86 N18 29.76F WCI 4 MONTGOMERY CLOUDY 21 16 81 NE20G30 29.75F HAZE WCI 6 POUGHKEEPSIE LGT SNOW 19 13 77 N13G24 29.79F WCI 6 ALBANY CLOUDY 17 5 59 N10 29.92F WCI 5 $$ NJZ001-105-106-008-010-013-015-019>022-104-270600- NEW JERSEY CITY SKY/WX TMP DP RH WIND PRES REMARKS NEWARK/LIBERTY LGT SNOW 23 20 88 N18G26 29.70F VSB 1 WCI 9 TETERBORO SNOW 23 18 81 N10G23 29.70F VSB 1/2 WCI 12 CALDWELL LGT SNOW 22 18 85 NE12G17 29.71F FOG WCI 10 MORRISTOWN LGT SNOW 25 18 74 N13G21 29.71F WCI 13 SOMERVILLE CLOUDY 26 16 65 N8 29.70F WCI 18 SUSSEX CLOUDY 22 14 71 NE14G23 29.73F WCI 9 ANDOVER N/A 20 15 81 NE10G21 29.72F WCI 9 TRENTON FLURRIES 26 18 71 N15G24 29.69S WCI 14 MILLVILLE FLURRIES 30 23 75 N20 29.65R WCI 17 ATLANTIC CITY CLOUDY 29 24 82 N18 29.62S WCI 16 WRIGHTSTOWN FLURRIES 27 21 80 N17G23 29.64F WCI 14 TOMS RIVER CLOUDY 27 21 80 N16G24 29.64F WCI 14 BELMAR CLOUDY 27 19 74 N18G28 29.63F WCI 13 $$ PAZ047>061-062-071-270600- EASTERN PENNSYLVANIA CITY SKY/WX TMP DP RH WIND PRES REMARKS PHILADELPHIA CLOUDY 29 21 72 N17G23 29.71S WCI 17 ALLENTOWN CLOUDY 25 16 68 NE15 29.74F WCI 13 SCRANTON MOCLDY 22 14 71 NE7 29.74F WCI 13 $$ CTZ002-004>006-009-010-012-RIZ004-006-007-MAZ004-011-015-270600- SOUTHERN NEW ENGLAND IN CT CITY SKY/WX TMP DP RH WIND PRES REMARKS BRADLEY INTL LGT SNOW 19 14 81 N25G31 29.78F VSB 1 WCI 1 HARTFORD SNOW 20 17 88 N20 29.75F VSB 1/2 WCI 4 DANBURY LGT SNOW 22 16 78 N16G22 29.71F VSB 3/4 WCI 8 WTRBRY/OXFORD CLOUDY 19 10 68 NE21G33 29.65F WCI 3 BRIDGEPORT LGT SNOW 23 21 92 N25G39 29.64F VSB 3/4 WCI 7 MERIDEN SNOW 20 16 84 N17G30 29.70F VSB 1/2 WCI 5 NEW HAVEN LGT SNOW 21 18 88 N29G40 29.64F VSB 3/4 WCI 3 CHESTER SNOW 23 21 93 N24G35 29.63F VSB 1/2 WCI 7 GROTON LGT SNOW 23 20 88 N25G36 29.59F FOG WCI 7 WILLIMANTIC LGT SNOW 20 15 81 N23G35 29.71F VSB 1 WCI 3 IN RI CITY SKY/WX TMP DP RH WIND PRES REMARKS PROVIDENCE LGT SNOW 21 18 88 N30G37 29.68F VSB 3/4 WCI 3 BLOCK ISLAND CLOUDY 30 25 80 NE33G61 29.52F VSB 1/2 WCI 14 WESTERLY LGT SNOW 24 21 88 N20G32 29.60F VSB 3/4 WCI 10 IN MA CITY SKY/WX TMP DP RH WIND PRES REMARKS BOSTON SNOW 19 17 92 N22G28 29.81F VSB 1/2 WCI 2 WORCESTER SNOW 13 10 88 NE20G33 29.74F VSB 1/2 WCI -5 WESTFIELD LGT SNOW 18 13 80 N18G30 29.81F VSB 1 WCI 2 PROVINCETOWN CLOUDY 30 28 93 NE41G53 29.73F VSB 1/4 WCI 13 NANTUCKET LGT SNOW 33 31 92 NE49G67 29.48F FOG WCI 16 $$ ANZ330-335-338-340-345-350-353-355-270600- COASTAL MARINE OBSERVATIONS STATION/POSITION TIME SKY/WX TEMP WIND PRES VSBY WAVE AIR SEA DIR/SP/G HT/PER (UTC) (F) (DEG/KT/KT) (MB) (MI) (FT/S) NY HARB ENTRANCE 0500 29 44 20/ 29/ 35 1002.1 10/ 8 4S FIRE IS 0500 39 N/A 10/ 9 20S FIRE ISLAND 0400 41 1001.5 13/ 9 23SW MTP 0500 N/A 15/ 9 HUDSON CANYON NOT AVBL EXECUTION ROCKS 0500 26 34 20/ 19/ 27 N/A WESTERN LI SOUND 0500 26 30/ 17/ 23 N/A 4/ 6 CENTRAL LI SOUND 0500 27 36 20/ 29/ 37 N/A 5/ 5 EASTERN LI SOUND NOT AVBL ROBBINS REEF 0500 24 360/ 21/ 25 1004.0 $$ >>>>>>>>>>>>>>>>>>>>>>>>>>>> KEY <<<<<<<<<<<<<<<<<<<<<<<<<<< > < > SKY/WX - SKY CONDITION/PRESENT WEATHER < > TMP - TEMPERATURE IN FAHRENHEIT < > DP - DEWPOINT IN FAHRENHEIT < > RH - RELATIVE HUMIDITY IN PERCENT < > WIND - DIRECTION AND SPEED IN MPH < > PRES - MEAN SEA LEVEL PRESSURE IN INCHES OF HG < > WCI - WIND CHILL INDEX < > VSB - VISIBILITY IN MILES < > HX - HEAT INDEX < > TC - TEMPERATURE IN CELSIUS < > VRB - VARIABLE WIND DIRECTION < > < >>>>>>>>>>>>>>>>>>>>>>>>>>>> KEY <<<<<<<<<<<<<<<<<<<<<<<<<<<

USA.gov is the U.S. government's official web portal to all federal, state and local government web resources and services.